CW9183 Weather Reports


time (UTC)temp
C
wind
direction
speed
KPH
gust
KPH
rain 1hr
cm
rain 24hr
cm
rain mn
cm
humidity
%
barometer
mb
20260505041548 18 336 3.2 16.1 0.00 0.00 0.00 65 1015.8
20260505041037 18 246 3.2 17.7 0.00 0.00 0.00 67 1015.8
20260505040538 18 122 4.8 17.7 0.00 0.00 0.00 66 1015.8
20260505040043 18 143 4.8 12.9 0.00 0.00 0.00 65 1015.8
20260505035536 18 167 4.8 16.1 0.00 0.00 0.00 65 1015.7
20260505035035 18 167 4.8 16.1 0.00 0.00 0.00 65 1015.7
20260505034546 18 128 4.8 16.1 0.00 0.00 0.00 65 1015.7
20260505034034 18 124 4.8 16.1 0.00 0.00 0.00 65 1015.7
20260505033534 18 148 3.2 12.9 0.00 0.00 0.00 66 1015.7
20260505033038 17 153 3.2 14.5 0.00 0.00 0.00 66 1015.7
20260505032537 17 103 4.8 14.5 0.00 0.00 0.00 66 1015.6
20260505032036 17 137 4.8 12.9 0.00 0.00 0.00 68 1015.6
20260505031553 16 138 3.2 11.3 0.00 0.00 0.00 70 1015.7
20260505031036 16 142 1.6 9.7 0.00 0.00 0.00 73 1015.7
20260505030536 16 0 0.0 6.4 0.00 0.00 0.00 74 1015.6
20260505030046 16 0 0.0 0.0 0.00 0.00 0.00 75 1015.6
20260505025536 16 0 0.0 0.0 0.00 0.00 0.00 74 1015.5
20260505025037 16 0 0.0 0.0 0.00 0.00 0.00 75 1015.6
20260505024547 16 0 0.0 0.0 0.00 0.00 0.00 76 1015.7
20260505024037 16 0 0.0 0.0 0.00 0.00 0.00 76 1015.6
20260505023538 16 0 0.0 0.0 0.00 0.00 0.00 76 1015.6
20260505023042 16 0 0.0 0.0 0.00 0.00 0.00 75 1015.5
20260505022536 16 0 0.0 0.0 0.00 0.00 0.00 75 1015.5
20260505022034 16 0 0.0 0.0 0.00 0.00 0.00 74 1015.5
20260505021550 16 0 0.0 3.2 0.00 0.00 0.00 75 1015.5
20260505021033 16 0 0.0 4.8 0.00 0.00 0.00 74 1015.5
20260505020535 16 168 0.0 6.4 0.00 0.00 0.00 74 1015.4
20260505020047 16 168 1.6 6.4 0.00 0.00 0.00 74 1015.3
20260505015536 16 0 0.0 3.2 0.00 0.00 0.00 74 1015.4
20260505015035 16 168 1.6 3.2 0.00 0.00 0.00 74 1015.3
20260505014551 16 168 0.0 3.2 0.00 0.00 0.00 73 1015.3
20260505014037 16 168 1.6 6.4 0.00 0.00 0.00 74 1015.4
20260505013535 16 168 1.6 6.4 0.00 0.00 0.00 72 1015.3
20260505013043 16 168 1.6 6.4 0.00 0.00 0.00 73 1015.3
20260505012536 16 168 1.6 6.4 0.00 0.00 0.00 73 1015.4
20260505012033 16 168 1.6 8.0 0.00 0.00 0.00 72 1015.4
20260505011541 16 169 3.2 8.0 0.00 0.00 0.00 71 1015.3
20260505011034 17 169 3.2 6.4 0.00 0.00 0.00 70 1015.2
20260505010536 17 169 3.2 6.4 0.00 0.00 0.00 68 1015.3
20260505010108 17 169 1.6 6.4 0.00 0.00 0.00 66 1015.2
20260505005534 17 0 0.0 1.6 0.00 0.00 0.00 63 1015.2
20260505005034 18 0 0.0 1.6 0.00 0.00 0.00 63 1015.1
20260505004549 18 0 0.0 0.0 0.00 0.00 0.00 62 1015.1
20260505004038 18 0 0.0 1.6 0.00 0.00 0.00 61 1015.1
20260505003535 18 0 0.0 1.6 0.00 0.00 0.00 60 1015.0
20260505003054 18 0 0.0 3.2 0.00 0.00 0.00 60 1015.0
20260505002533 19 0 0.0 3.2 0.00 0.00 0.00 59 1014.9
20260505002034 19 169 0.0 3.2 0.00 0.00 0.00 58 1014.9
20260505001547 20 0 1.6 4.8 0.00 0.00 0.00 57 1015.0
20260505001035 20 169 1.6 6.4 0.00 0.00 0.00 57 1015.0
20260505000534 20 169 3.2 6.4 0.00 0.00 0.00 55 1015.0
20260505000048 21 0 0.0 0.0 0.00 0.00 0.00 52 1015.0
20260504235536 21 0 0.0 0.0 0.00 0.00 0.00 51 1015.0
20260504235032 22 0 0.0 0.0 0.00 0.00 0.00 49 1014.9
20260504234541 22 0 0.0 0.0 0.00 0.00 0.00 49 1014.9
20260504234035 22 0 0.0 1.6 0.00 0.00 0.00 46 1014.9
20260504233538 22 0 0.0 8.0 0.00 0.00 0.00 46 1014.8
20260504233103 22 169 0.0 8.0 0.00 0.00 0.00 47 1014.7
20260504232535 22 169 4.8 8.0 0.00 0.00 0.00 46 1014.6
20260504232033 23 145 0.0 8.0 0.00 0.00 0.00 44 1014.6
20260504231549 23 136 1.6 17.7 0.00 0.00 0.00 44 1014.6
20260504231031 23 158 3.2 17.7 0.00 0.00 0.00 43 1014.6
20260504230533 23 163 8.0 17.7 0.00 0.00 0.00 40 1014.4
20260504230054 24 156 0.0 4.8 0.00 0.00 0.00 35 1014.3
20260504225539 24 0 0.0 6.4 0.00 0.00 0.00 35 1014.4
20260504225035 24 0 0.0 11.3 0.00 0.00 0.00 36 1014.4
20260504224545 24 199 3.2 11.3 0.00 0.00 0.00 37 1014.4
20260504224033 24 138 4.8 16.1 0.00 0.00 0.00 33 1014.6
20260504223533 24 156 3.2 16.1 0.00 0.00 0.00 33 1014.6
20260504223045 24 144 3.2 12.9 0.00 0.00 0.00 33 1014.6
20260504222535 24 180 3.2 19.3 0.00 0.00 0.00 36 1014.6
20260504222033 25 144 8.0 19.3 0.00 0.00 0.00 32 1014.7
20260504221540 25 157 1.6 16.1 0.00 0.00 0.00 31 1014.7
20260504221035 25 14 4.8 16.1 0.00 0.00 0.00 30 1014.8
20260504220532 25 220 1.6 12.9 0.00 0.00 0.00 32 1014.8
20260504220051 25 311 4.8 16.1 0.00 0.00 0.00 32 1014.7
20260504215536 25 306 4.8 16.1 0.00 0.00 0.00 31 1014.7
20260504215036 25 349 6.4 20.9 0.00 0.00 0.00 31 1014.9
20260504214548 25 317 6.4 22.5 0.00 0.00 0.00 30 1014.9
20260504214032 25 291 6.4 22.5 0.00 0.00 0.00 30 1015.0
20260504213536 24 0 4.8 14.5 0.00 0.00 0.00 32 1014.9
20260504213047 24 329 4.8 20.9 0.00 0.00 0.00 30 1014.9
20260504212533 24 318 6.4 20.9 0.00 0.00 0.00 31 1015.0
20260504212033 24 140 1.6 19.3 0.00 0.00 0.00 33 1014.9
20260504211544 24 274 4.8 19.3 0.00 0.00 0.00 32 1015.1
20260504211035 24 119 4.8 17.7 0.00 0.00 0.00 34 1015.0
20260504210536 24 348 1.6 22.5 0.00 0.00 0.00 33 1015.0
20260504210054 24 352 8.0 22.5 0.00 0.00 0.00 32 1014.9
20260504205535 23 292 9.7 22.5 0.00 0.00 0.00 31 1014.9
20260504205033 23 198 8.0 17.7 0.00 0.00 0.00 31 1014.8
20260504204556 23 142 8.0 14.5 0.00 0.00 0.00 33 1014.9
20260504204035 23 128 6.4 19.3 0.00 0.00 0.00 33 1015.0
20260504203532 23 252 6.4 19.3 0.00 0.00 0.00 32 1015.0
20260504203053 23 281 4.8 25.7 0.00 0.00 0.00 32 1014.8
20260504202533 23 142 4.8 25.7 0.00 0.00 0.00 33 1015.0
20260504202032 23 114 9.7 20.9 0.00 0.00 0.00 32 1015.1
20260504201548 23 130 9.7 20.9 0.00 0.00 0.00 32 1015.2
20260504201035 23 142 8.0 17.7 0.00 0.00 0.00 32 1015.2
20260504200535 23 141 6.4 17.7 0.00 0.00 0.00 33 1015.3
20260504200046 23 161 3.2 20.9 0.00 0.00 0.00 34 1015.3
20260504195533 23 135 4.8 35.4 0.00 0.00 0.00 32 1015.3
20260504195034 23 117 4.8 35.4 0.00 0.00 0.00 33 1015.4
20260504194546 23 163 11.3 24.1 0.00 0.00 0.00 33 1015.3
20260504194038 24 290 4.8 22.5 0.00 0.00 0.00 31 1015.5
20260504193533 24 304 8.0 20.9 0.00 0.00 0.00 29 1015.4
20260504193048 24 336 8.0 20.9 0.00 0.00 0.00 29 1015.5
20260504192536 23 296 3.2 20.9 0.00 0.00 0.00 30 1015.5
20260504192036 23 338 6.4 19.3 0.00 0.00 0.00 29 1015.5
20260504191542 23 294 4.8 20.9 0.00 0.00 0.00 29 1015.6
20260504191033 23 237 3.2 29.0 0.00 0.00 0.00 31 1015.7
20260504190537 23 158 4.8 29.0 0.00 0.00 0.00 30 1015.7
20260504190112 23 274 9.7 19.3 0.00 0.00 0.00 30 1015.8
20260504185534 23 297 4.8 20.9 0.00 0.00 0.00 29 1015.9
20260504185033 23 120 1.6 20.9 0.00 0.00 0.00 28 1015.8
20260504184550 23 283 8.0 24.1 0.00 0.00 0.00 29 1016.0
20260504184035 23 290 14.5 24.1 0.00 0.00 0.00 30 1016.0
20260504183535 23 322 12.9 24.1 0.00 0.00 0.00 31 1016.2
20260504183047 23 301 9.7 22.5 0.00 0.00 0.00 29 1016.1
20260504182532 23 290 9.7 19.3 0.00 0.00 0.00 29 1016.2
20260504182036 23 319 8.0 17.7 0.00 0.00 0.00 33 1016.1
20260504181551 23 300 6.4 17.7 0.00 0.00 0.00 32 1016.1
20260504181036 23 308 8.0 19.3 0.00 0.00 0.00 32 1016.3
20260504180537 22 259 3.2 22.5 0.00 0.00 0.00 32 1016.4
20260504180045 22 284 11.3 22.5 0.00 0.00 0.00 34 1016.4
20260504175532 22 298 9.7 17.7 0.00 0.00 0.00 34 1016.6
20260504175033 22 319 6.4 16.1 0.00 0.00 0.00 33 1016.5
20260504174553 22 298 6.4 16.1 0.00 0.00 0.00 32 1016.5
20260504174033 22 217 6.4 19.3 0.00 0.00 0.00 33 1016.6
20260504173533 22 360 8.0 19.3 0.00 0.00 0.00 34 1016.7
20260504173047 22 122 6.4 16.1 0.00 0.00 0.00 35 1016.7
20260504172534 22 123 6.4 16.1 0.00 0.00 0.00 36 1016.8
20260504172032 22 89 1.6 20.9 0.00 0.00 0.00 37 1016.8
20260504171549 22 327 6.4 20.9 0.00 0.00 0.00 34 1016.7
20260504171038 22 266 4.8 19.3 0.00 0.00 0.00 36 1017.0
20260504170535 21 298 4.8 20.9 0.00 0.00 0.00 36 1016.8
20260504151032 19 336 8.0 14.5 0.00 0.00 0.00 44 1017.8
20260504150535 18 316 4.8 11.3 0.00 0.00 0.00 44 1018.0
20260504141035 17 299 1.6 17.7 0.00 0.00 0.00 52 1018.0
20260504140549 17 351 8.0 17.7 0.00 0.00 0.00 53 1018.1
20260504130536 16 290 6.4 17.7 0.00 0.00 0.00 60 1018.8
20260504110540 10 0 0.0 0.0 0.00 0.00 0.00 84 1019.2
20260504100534 10 0 0.0 0.0 0.00 0.00 0.00 84 1019.0
20260504081554 10 115 0.0 3.2 0.00 0.00 0.00 79 1019.3
20260504081037 10 0 0.0 3.2 0.00 0.00 0.00 79 1019.3
20260504080537 10 0 0.0 3.2 0.00 0.00 0.00 79 1019.4
20260504060106 9 0 0.0 6.4 0.00 0.00 0.00 86 1019.9
20260504050536 7 159 1.6 6.4 0.00 0.00 0.00 86 1019.6
20260504045539 7 0 0.0 6.4 0.00 0.00 0.00 86 1019.6
20260504045035 7 0 1.6 6.4 0.00 0.00 0.00 86 1019.7
20260504044546 7 0 0.0 0.0 0.00 0.00 0.00 85 1019.7
20260504044035 7 0 0.0 0.0 0.00 0.00 0.00 85 1019.7
20260504043536 7 0 0.0 0.0 0.00 0.00 0.00 84 1019.7
20260504043043 7 0 0.0 1.6 0.00 0.00 0.00 83 1019.7
20260504042532 7 0 0.0 3.2 0.00 0.00 0.00 83 1019.8
20260504042035 7 0 0.0 3.2 0.00 0.00 0.00 83 1019.7